Miscellaneous Local Product
Issued by NWS Hastings, NE

Home | Current Version | Previous Version | Graphics & Text | Print | Product List | Glossary On
Versions: 1 2 3 4 5 6 7 8 9 10 11 12 13 14 15 16 17 18 19 20 21 22 23 24 25 26 27 28 29 30 31 32 33 34 35 36 37 38 39 40 41 42 43 44 45 46 47 48 49 50
969
AXUS43 KGID 211802
MISGRI

GID CWA HOURLY WEATHER ROUNDUP
NATIONAL WEATHER SERVICE HASTINGS NE
100 PM CDT SAT OCT 21 2017

NOTE: "FAIR" INDICATES FEW OR NO CLOUDS BELOW 12,000 FEET WITH NO
SIGNIFICANT WEATHER AND/OR OBSTRUCTIONS TO VISIBILITY.

...SOUTH CENTRAL NEBRASKA...

CITY           SKY/WX    TMP DP  RH WIND       PRES   REMARKS
GRAND ISLAND   CLOUDY    57  41  55 NW29G44   29.78R
KEARNEY        MOSUNNY   60  40  47 N25G33    29.80R
HASTINGS       CLOUDY    58  39  49 NW31G49   29.78R
ORD            CLOUDY    53  39  59 NW26G41   29.80R
YORK           CLOUDY    63  45  51 NW29G39   29.70R
AURORA         CLOUDY    59  40  48 NW26G36   29.75R
LEXINGTON      CLOUDY    56  41  55 NW25G31   29.85R
HOLDREGE       MOSUNNY   59  41  52 NW24G33   29.82R
HEBRON         SUNNY     73  55  51 W21G29    29.71R

...NEBRASKA PANHANDLE...

CITY           SKY/WX    TMP DP  RH WIND       PRES   REMARKS
CHADRON        SUNNY     56  16  20 NW24G35   29.90R
ALLIANCE       SUNNY     53  21  28 NW24      29.90S
SCOTTSBLUFF    SUNNY     55  19  24 W20G29    29.93S
SIDNEY         SUNNY     54  20  26 NW23G36   29.95R

...WESTERN AND NORTH CENTRAL NEBRASKA...

CITY           SKY/WX    TMP DP  RH WIND       PRES   REMARKS
VALENTINE      CLOUDY    48  41  76 W7        29.84S
AINSWORTH      LGT RAIN  46  42  88 NW16G23   29.85R
ONEILL         CLOUDY    51  39  64 NW28G36   29.81R
BROKEN BOW     CLOUDY    51  39  63 NW31G39   29.84R
IMPERIAL       MOSUNNY   58  27  30 N26G36    29.91R
NORTH PLATTE   PTSUNNY   52  41  66 NW17G29   29.89R
MCCOOK         CLOUDY    56  37  49 NW24G37   29.90R

...EASTERN NEBRASKA...

CITY           SKY/WX    TMP DP  RH WIND       PRES   REMARKS
NORFOLK        CLOUDY    57  42  57 NW22G31   29.69R
SO SIOUX CITY  LGT RAIN  63  60  90 NW20G31   29.63R FOG
TEKAMAH        CLOUDY    73  61  65 S16G24    29.64R
COLUMBUS       CLOUDY    60  44  55 NW22G30   29.70R
ALBION         CLOUDY    57  42  57 NW28G36   29.74R
OMAHA EPPLEY   CLOUDY    73  62  68 S20       29.66R
OFFUTT AFB     MOSUNNY   73  62  68 S16G25    29.67R
MILLARD        CLOUDY    74  64  69 S14G24    29.66S
LINCOLN        CLOUDY    74  60  61 SW22G31   29.66R
NEBRASKA CITY  CLOUDY    74  65  74 S26G36    29.70S
BEATRICE       CLOUDY    73  62  68 SW25G33   29.69R
FALLS CITY     CLOUDY    72  62  71 S18G28    29.73F

...NORTHERN KANSAS...

CITY           SKY/WX    TMP DP  RH WIND       PRES   REMARKS
GOODLAND       MOSUNNY   57  28  33 NW25G37   29.93R
HILL CITY      CLOUDY    62  37  39 N23G37    29.87R
NORTON         CLEAR     59  32  36 NW20G31   29.86R
PHILLIPSBURG   SUNNY     68  34  28 NW20G33   29.83R
SMITH CENTER   SUNNY     66  41  39 NW23G33   29.80R
HAYS           CLOUDY    67  36  31 NW23G37   29.84R
RUSSELL        MOSUNNY   67  36  31 NW22      29.80R
CONCORDIA      LGT RAIN  71  51  49 W17G28    29.74R
SALINA         CLOUDY    69  46  43 W15       29.77R
TOPEKA         CLOUDY    73  65  75 S22G32    29.80R



USA.gov is the U.S. government's official web portal to all federal, state and local government web resources and services.